Location: Newark
(35.2161°N, 26.1013°E)
Time: 05:19:01
(UTC+00:00)

N. Korean satellite - Visible Passes

Search period start: 19 November 2019 00:00
Search period end: 29 November 2019 00:00
Orbit: 456 x 506 km, 97.2° (Epoch: 18 November)

Date Brightness Start Highest point End Pass type
(mag) Time Alt. Az. Time Alt. Az. Time Alt. Az.
19 Nov 10.1 03:05:57 10° ENE 03:07:32 12° E 03:09:07 10° ESE visible
20 Nov 6.5 04:12:01 10° N 04:15:43 74° WNW 04:19:20 10° SSW visible
20 Nov 9.9 16:18:34 10° SW 16:21:00 17° W 16:23:27 10° NW visible
21 Nov 7.8 03:46:47 10° NNE 03:50:20 45° E 03:53:49 10° S visible
21 Nov 8.4 15:52:07 10° SSW 15:55:29 36° W 15:58:55 10° NNW visible
22 Nov 9.4 03:22:02 10° NE 03:24:51 21° E 03:27:37 10° SE visible
22 Nov 6.7 15:26:26 10° SSE 15:30:04 87° WSW 15:33:46 10° NNW visible
23 Nov 7.0 04:29:24 10° N 04:32:51 40° WNW 04:36:15 10° SW visible
24 Nov 6.6 04:03:51 10° NNE 04:07:32 84° E 04:11:07 10° S visible
24 Nov 9.5 16:09:53 10° SSW 16:12:44 21° W 16:15:38 10° NW visible
25 Nov 8.4 03:38:44 10° NNE 03:42:06 35° E 03:45:24 10° SSE visible
25 Nov 7.8 15:43:44 10° S 15:47:15 47° W 15:50:51 10° NNW visible
26 Nov 9.8 03:14:16 10° NE 03:16:34 16° E 03:18:51 10° SE visible
27 Nov 6.7 04:21:06 10° N 04:24:39 53° WNW 04:28:07 10° SSW visible
27 Nov 10.1 16:28:15 10° WSW 16:30:01 13° W 16:31:47 10° WNW visible
28 Nov 7.1 03:55:41 10° NNE 03:59:17 63° E 04:02:48 10° S visible
28 Nov 9.0 16:01:18 10° SSW 16:04:28 27° W 16:07:40 10° NW visible
